Terminal Aerodrome Forecast
Issued by NWS

Home | Current Version | Previous Version | Text Only | Print | Product List | Glossary On
Versions: 1 2 3 4 5 6 7 8 9 10 11 12 13 14 15 16 17 18 19 20
000
FTUS41 KALY 211500 AAC
TAFPSF
TAF AMD
KPSF 211520Z 2115/2212 18010G20KT P6SM SCT025
     FM212000 19010KT P6SM SCT050 BKN100
     FM212200 22005KT P6SM VCSH BKN035
     FM220200 27005KT P6SM SCT020 BKN080
     FM220600 27003KT 4SM BR BKN020=

USA.gov is the U.S. government's official web portal to all federal, state and local government web resources and services.